Station History

Weather Underground - logo

Station Historical Data
Daily Summary for July 31, 2017 Units:  English    Metric   Both
« Previous Day
Next Day »
Daily Weekly Monthly Yearly Custom
  High: Low: Average:
Temperature: 101.5 °F 68.0 °F 85.4 °F
Dew Point: 67.8 °F 58.7 °F 63 °F
Humidity: 82 % 26 % 52 %
Wind Speed: 6.9 mph 0.0 mph 1.6 mph
Wind Gust: 6.9 mph - -
Wind:- - SW
Pressure: 29.95 in 29.79 in -
Precipitation: 0.00 in    
Historical Graphs
 
 
Tabular Data for July 31, 2017
Time Temperature Dew Point Pressure Wind Wind Speed Wind Gust Humidity Rainfall Rate (Hourly)
00:01 76.3 °F 65.8 °F 29.90 in Calm     70 % 0.00 in
00:06 76.3 °F 65.4 °F 29.90 in Calm     69 % 0.00 in
00:11 76.2 °F 65.3 °F 29.90 in Calm     69 % 0.00 in
00:16 76.5 °F 65.1 °F 29.90 in Calm     68 % 0.00 in
00:21 76.9 °F 65.5 °F 29.90 in Calm     68 % 0.00 in
00:26 76.7 °F 65.3 °F 29.90 in Calm     68 % 0.00 in
00:31 76.3 °F 65.4 °F 29.90 in Calm     69 % 0.00 in
00:36 75.9 °F 65.4 °F 29.90 in Calm     70 % 0.00 in
00:41 75.6 °F 64.7 °F 29.90 in Calm     69 % 0.00 in
00:46 75.7 °F 64.4 °F 29.90 in Calm     68 % 0.00 in
00:51 75.9 °F 64.6 °F 29.90 in Calm     68 % 0.00 in
00:56 75.7 °F 65.2 °F 29.90 in Calm     70 % 0.00 in
01:01 75.6 °F 65.9 °F 29.90 in Calm     72 % 0.00 in
01:06 75.3 °F 66.0 °F 29.90 in Calm     73 % 0.00 in
01:12 74.9 °F 65.7 °F 29.90 in Calm     73 % 0.00 in
01:17 74.6 °F 65.8 °F 29.90 in Calm     74 % 0.00 in
01:22 74.5 °F 65.7 °F 29.90 in Calm     74 % 0.00 in
01:27 74.3 °F 65.5 °F 29.90 in Calm     74 % 0.00 in
01:32 74.1 °F 65.7 °F 29.90 in Calm     75 % 0.00 in
01:37 74.0 °F 65.2 °F 29.90 in Calm     74 % 0.00 in
01:42 74.0 °F 64.8 °F 29.90 in Calm     73 % 0.00 in
01:47 73.9 °F 64.7 °F 29.90 in Calm     73 % 0.00 in
01:52 73.8 °F 65.0 °F 29.90 in Calm     74 % 0.00 in
01:57 73.6 °F 65.2 °F 29.90 in Calm     75 % 0.00 in
02:02 74.0 °F 64.4 °F 29.90 in Calm     72 % 0.00 in
02:07 73.9 °F 64.7 °F 29.90 in Calm     73 % 0.00 in
02:12 73.3 °F 64.9 °F 29.90 in Calm     75 % 0.00 in
02:17 72.5 °F 64.5 °F 29.90 in Calm     76 % 0.00 in
02:22 71.9 °F 64.3 °F 29.90 in Calm     77 % 0.00 in
02:27 71.5 °F 63.9 °F 29.90 in Calm     77 % 0.00 in
02:32 71.4 °F 63.8 °F 29.90 in Calm     77 % 0.00 in
02:37 71.3 °F 63.7 °F 29.90 in Calm     77 % 0.00 in
02:42 71.2 °F 64.0 °F 29.90 in Calm     78 % 0.00 in
02:47 71.1 °F 63.9 °F 29.91 in Calm     78 % 0.00 in
02:52 70.9 °F 63.7 °F 29.91 in Calm     78 % 0.00 in
02:57 70.9 °F 63.7 °F 29.90 in Calm     78 % 0.00 in
03:02 70.8 °F 63.6 °F 29.91 in Calm     78 % 0.00 in
03:03 70.8 °F 63.6 °F 29.90 in Calm     78 % 0.00 in
03:08 70.9 °F 63.7 °F 29.91 in Calm     78 % 0.00 in
03:13 70.6 °F 63.4 °F 29.91 in Calm     78 % 0.00 in
03:19 70.3 °F 63.5 °F 29.91 in Calm     79 % 0.00 in
03:24 70.0 °F 63.5 °F 29.91 in Calm     80 % 0.00 in
03:29 69.8 °F 63.7 °F 29.91 in Calm     81 % 0.00 in
03:34 69.5 °F 63.4 °F 29.91 in Calm     81 % 0.00 in
03:39 69.4 °F 63.3 °F 29.91 in Calm     81 % 0.00 in
03:44 69.2 °F 63.5 °F 29.91 in Calm     82 % 0.00 in
03:49 68.9 °F 63.2 °F 29.91 in Calm     82 % 0.00 in
03:54 68.8 °F 63.1 °F 29.91 in Calm     82 % 0.00 in
03:59 68.7 °F 63.0 °F 29.91 in Calm     82 % 0.00 in
04:04 68.6 °F 62.9 °F 29.91 in Calm     82 % 0.00 in
04:09 68.8 °F 63.1 °F 29.92 in Calm     82 % 0.00 in
04:14 68.8 °F 63.1 °F 29.92 in Calm     82 % 0.00 in
04:19 68.8 °F 63.1 °F 29.91 in Calm     82 % 0.00 in
04:24 69.0 °F 63.3 °F 29.91 in Calm     82 % 0.00 in
04:29 69.0 °F 63.3 °F 29.91 in Calm     82 % 0.00 in
04:34 69.0 °F 63.3 °F 29.92 in Calm     82 % 0.00 in
04:39 68.8 °F 63.1 °F 29.92 in Calm     82 % 0.00 in
04:44 68.8 °F 63.1 °F 29.92 in Calm     82 % 0.00 in
04:49 68.6 °F 62.9 °F 29.92 in Calm     82 % 0.00 in
04:54 68.5 °F 62.8 °F 29.92 in Calm     82 % 0.00 in
04:59 68.5 °F 62.4 °F 29.92 in Calm     81 % 0.00 in
05:04 68.5 °F 62.4 °F 29.92 in Calm     81 % 0.00 in
05:09 68.4 °F 62.3 °F 29.92 in Calm     81 % 0.00 in
05:14 68.5 °F 62.1 °F 29.92 in Calm     80 % 0.00 in
05:19 68.5 °F 62.1 °F 29.92 in Calm     80 % 0.00 in
05:24 68.4 °F 62.0 °F 29.92 in Calm     80 % 0.00 in
05:29 68.5 °F 62.1 °F 29.92 in Calm     80 % 0.00 in
05:34 68.5 °F 62.1 °F 29.92 in Calm     80 % 0.00 in
05:39 68.6 °F 61.8 °F 29.93 in Calm     79 % 0.00 in
05:44 68.5 °F 61.7 °F 29.93 in Calm     79 % 0.00 in
05:49 68.4 °F 62.0 °F 29.93 in Calm     80 % 0.00 in
05:55 68.3 °F 61.5 °F 29.93 in Calm     79 % 0.00 in
06:00 68.3 °F 61.5 °F 29.93 in Calm     79 % 0.00 in
06:05 68.2 °F 61.8 °F 29.93 in Calm     80 % 0.00 in
06:07 68.1 °F 61.7 °F 29.93 in Calm     80 % 0.00 in
06:12 68.1 °F 61.7 °F 29.93 in Calm     80 % 0.00 in
06:17 68.1 °F 61.7 °F 29.93 in Calm     80 % 0.00 in
06:22 68.1 °F 61.7 °F 29.93 in Calm     80 % 0.00 in
06:27 68.0 °F 61.9 °F 29.94 in Calm     81 % 0.00 in
06:32 68.0 °F 61.9 °F 29.94 in Calm     81 % 0.00 in
06:37 68.1 °F 62.0 °F 29.94 in Calm     81 % 0.00 in
06:43 68.1 °F 62.0 °F 29.94 in Calm     81 % 0.00 in
06:48 68.4 °F 62.0 °F 29.94 in Calm     80 % 0.00 in
06:53 68.5 °F 62.1 °F 29.94 in Calm     80 % 0.00 in
06:58 68.9 °F 62.1 °F 29.95 in Calm     79 % 0.00 in
07:03 69.3 °F 62.5 °F 29.94 in Calm     79 % 0.00 in
07:08 69.8 °F 62.3 °F 29.95 in Calm     77 % 0.00 in
07:13 70.7 °F 62.4 °F 29.95 in Calm     75 % 0.00 in
07:18 72.1 °F 62.6 °F 29.95 in Calm     72 % 0.00 in
07:25 73.4 °F 62.6 °F 29.95 in ESE 3.5 mph 3.5 mph 69 % 0.00 in
07:30 74.0 °F 62.3 °F 29.95 in ESE 1.2 mph   67 % 0.00 in
07:35 74.6 °F 62.1 °F 29.95 in East 3.5 mph 3.5 mph 65 % 0.00 in
07:40 74.8 °F 62.2 °F 29.95 in ESE 3.0 mph 3.0 mph 65 % 0.00 in
07:45 75.0 °F 62.0 °F 29.95 in SE 3.5 mph 3.5 mph 64 % 0.00 in
07:50 75.3 °F 61.8 °F 29.95 in South 3.5 mph 3.5 mph 63 % 0.00 in
07:55 75.5 °F 62.0 °F 29.95 in East 2.3 mph 2.3 mph 63 % 0.00 in
08:00 75.9 °F 61.9 °F 29.95 in South 2.0 mph 2.0 mph 62 % 0.00 in
08:05 76.5 °F 62.0 °F 29.95 in SE 3.5 mph 3.5 mph 61 % 0.00 in
08:10 77.4 °F 63.4 °F 29.95 in SSE 1.2 mph 1.2 mph 62 % 0.00 in
08:15 78.0 °F 62.5 °F 29.95 in SE 2.3 mph 2.3 mph 59 % 0.00 in
08:20 78.4 °F 62.4 °F 29.95 in ENE 3.5 mph 3.5 mph 58 % 0.00 in
08:26 78.8 °F 62.3 °F 29.95 in East 2.3 mph 2.3 mph 57 % 0.00 in
08:31 79.2 °F 63.1 °F 29.95 in SSE 1.2 mph 1.2 mph 58 % 0.00 in
08:41 80.5 °F 62.8 °F 29.95 in SSE 3.5 mph 3.5 mph 55 % 0.00 in
08:46 81.0 °F 62.8 °F 29.95 in ENE 3.5 mph 3.5 mph 54 % 0.00 in
08:51 81.4 °F 62.6 °F 29.95 in ESE 3.5 mph 3.5 mph 53 % 0.00 in
08:56 81.9 °F 63.1 °F 29.95 in East 3.5 mph 3.5 mph 53 % 0.00 in
09:01 82.1 °F 62.7 °F 29.95 in SSE 3.5 mph 3.5 mph 52 % 0.00 in
09:06 82.6 °F 63.2 °F 29.95 in SSW 3.5 mph 3.5 mph 52 % 0.00 in
09:11 83.0 °F 62.4 °F 29.95 in SW 2.3 mph 2.3 mph 50 % 0.00 in
09:16 83.7 °F 62.5 °F 29.95 in ESE 3.5 mph 3.5 mph 49 % 0.00 in
09:21 83.7 °F 61.3 °F 29.95 in SSW 4.6 mph 4.6 mph 47 % 0.00 in
09:26 83.9 °F 61.5 °F 29.95 in SE 5.8 mph 5.8 mph 47 % 0.00 in
09:31 84.3 °F 61.3 °F 29.95 in South 2.3 mph 2.3 mph 46 % 0.00 in
09:36 84.9 °F 60.6 °F 29.95 in ESE 4.6 mph 4.6 mph 44 % 0.00 in
09:41 85.1 °F 60.1 °F 29.95 in South 3.5 mph 3.5 mph 43 % 0.00 in
09:46 85.6 °F 61.8 °F 29.95 in East 3.5 mph 3.5 mph 45 % 0.00 in
09:51 86.2 °F 61.1 °F 29.95 in SE 3.5 mph 3.5 mph 43 % 0.00 in
09:56 86.6 °F 62.1 °F 29.95 in SSE 3.5 mph 3.5 mph 44 % 0.00 in
10:01 87.0 °F 61.8 °F 29.95 in SE 1.2 mph 1.2 mph 43 % 0.00 in
10:06 87.4 °F 62.2 °F 29.95 in SSE 6.0 mph 6.0 mph 43 % 0.00 in
10:11 87.7 °F 61.1 °F 29.94 in SE 3.5 mph 3.5 mph 41 % 0.00 in
10:16 87.9 °F 61.9 °F 29.95 in SSE 3.5 mph 3.5 mph 42 % 0.00 in
10:21 88.0 °F 61.3 °F 29.94 in SSW 3.5 mph 3.5 mph 41 % 0.00 in
10:26 88.1 °F 62.1 °F 29.94 in SSE 2.3 mph 2.3 mph 42 % 0.00 in
10:31 88.2 °F 60.8 °F 29.94 in SE 5.8 mph 5.8 mph 40 % 0.00 in
10:36 88.1 °F 60.7 °F 29.94 in SSE 3.5 mph 3.5 mph 40 % 0.00 in
10:41 88.6 °F 61.2 °F 29.94 in SSE 3.5 mph 3.5 mph 40 % 0.00 in
10:46 89.0 °F 62.9 °F 29.94 in SSW 2.3 mph 2.3 mph 42 % 0.00 in
10:51 89.5 °F 61.3 °F 29.93 in SSE 2.3 mph 2.3 mph 39 % 0.00 in
10:56 90.0 °F 62.4 °F 29.93 in NE 1.2 mph 1.2 mph 40 % 0.00 in
11:01 90.2 °F 63.3 °F 29.93 in SSE 2.3 mph 2.3 mph 41 % 0.00 in
11:07 90.4 °F 64.2 °F 29.93 in NW 4.0 mph 4.0 mph 42 % 0.00 in
11:12 90.2 °F 63.3 °F 29.93 in ESE 2.3 mph 2.3 mph 41 % 0.00 in
11:17 90.6 °F 63.7 °F 29.93 in SSW 3.5 mph 3.5 mph 41 % 0.00 in
11:22 91.1 °F 65.5 °F 29.93 in Calm     43 % 0.00 in
11:27 91.5 °F 63.8 °F 29.92 in SE 2.3 mph 2.3 mph 40 % 0.00 in
11:32 91.7 °F 64.0 °F 29.93 in SE 2.3 mph 2.3 mph 40 % 0.00 in
11:42 92.4 °F 64.6 °F 29.92 in SE 4.0 mph 4.0 mph 40 % 0.00 in
11:47 92.5 °F 63.2 °F 29.92 in NW 2.3 mph 2.3 mph 38 % 0.00 in
11:52 92.5 °F 64.7 °F 29.92 in ESE 2.3 mph 2.3 mph 40 % 0.00 in
11:57 92.5 °F 63.2 °F 29.92 in NW 2.3 mph 2.3 mph 38 % 0.00 in
12:02 92.7 °F 64.1 °F 29.92 in WNW 2.3 mph 2.3 mph 39 % 0.00 in
12:07 92.9 °F 65.7 °F 29.91 in North 2.3 mph 2.3 mph 41 % 0.00 in
12:12 93.0 °F 64.4 °F 29.91 in SE 5.8 mph 5.8 mph 39 % 0.00 in
12:17 92.9 °F 65.0 °F 29.91 in WNW 2.3 mph 2.3 mph 40 % 0.00 in
12:22 93.4 °F 66.2 °F 29.91 in NNW 2.3 mph 2.3 mph 41 % 0.00 in
12:27 93.9 °F 64.4 °F 29.90 in North 2.3 mph 2.3 mph 38 % 0.00 in
12:32 93.6 °F 66.4 °F 29.90 in SE 3.5 mph 3.5 mph 41 % 0.00 in
12:37 93.5 °F 66.3 °F 29.90 in East 3.5 mph 3.5 mph 41 % 0.00 in
12:42 93.8 °F 66.5 °F 29.90 in North 1.2 mph 1.2 mph 41 % 0.00 in
12:47 94.1 °F 66.1 °F 29.90 in ESE 2.3 mph 2.3 mph 40 % 0.00 in
12:52 94.7 °F 66.6 °F 29.90 in NW 1.2 mph 1.2 mph 40 % 0.00 in
12:57 94.9 °F 66.1 °F 29.89 in East 2.3 mph 2.3 mph 39 % 0.00 in
13:02 95.3 °F 66.4 °F 29.89 in NNW 2.3 mph 2.3 mph 39 % 0.00 in
13:07 95.5 °F 64.3 °F 29.89 in NNW 3.0 mph 3.0 mph 36 % 0.00 in
13:12 95.5 °F 65.9 °F 29.89 in NW 1.2 mph 1.2 mph 38 % 0.00 in
13:17 95.8 °F 64.6 °F 29.89 in NW 1.2 mph 1.2 mph 36 % 0.00 in
13:18 95.9 °F 64.7 °F 29.89 in NW 1.2 mph   36 % 0.00 in
13:23 95.7 °F 64.5 °F 29.89 in SE 3.5 mph 3.5 mph 36 % 0.00 in
13:28 96.2 °F 64.9 °F 29.88 in Calm     36 % 0.00 in
13:33 96.9 °F 65.5 °F 29.88 in SE 1.2 mph 1.2 mph 36 % 0.00 in
13:38 97.7 °F 67.8 °F 29.88 in WSW 2.3 mph 2.3 mph 38 % 0.00 in
13:43 97.7 °F 67.0 °F 29.88 in NNW 1.2 mph 1.2 mph 37 % 0.00 in
13:48 98.2 °F 65.9 °F 29.88 in North 3.5 mph 3.5 mph 35 % 0.00 in
13:53 98.4 °F 66.0 °F 29.88 in South 1.2 mph 1.2 mph 35 % 0.00 in
13:58 98.9 °F 63.9 °F 29.87 in SSE 3.5 mph 3.5 mph 32 % 0.00 in
14:03 99.0 °F 64.0 °F 29.87 in East 2.3 mph 2.3 mph 32 % 0.00 in
14:08 99.1 °F 65.0 °F 29.87 in SE 2.3 mph 2.3 mph 33 % 0.00 in
14:13 98.9 °F 65.6 °F 29.87 in NE 2.3 mph 2.3 mph 34 % 0.00 in
14:18 99.4 °F 64.3 °F 29.86 in WSW 2.3 mph 2.3 mph 32 % 0.00 in
14:23 99.6 °F 64.5 °F 29.86 in North 2.3 mph 2.3 mph 32 % 0.00 in
14:28 99.6 °F 63.6 °F 29.86 in NW 2.3 mph 2.3 mph 31 % 0.00 in
14:33 99.8 °F 61.9 °F 29.85 in NW 2.3 mph 2.3 mph 29 % 0.00 in
14:38 100.4 °F 65.2 °F 29.85 in South 3.5 mph 3.5 mph 32 % 0.00 in
14:43 99.9 °F 62.9 °F 29.85 in West 2.3 mph 2.3 mph 30 % 0.00 in
14:48 99.9 °F 64.8 °F 29.85 in NW 2.3 mph 2.3 mph 32 % 0.00 in
14:53 100.1 °F 65.8 °F 29.85 in South 3.5 mph 3.5 mph 33 % 0.00 in
14:58 100.3 °F 64.2 °F 29.85 in NW 3.5 mph 3.5 mph 31 % 0.00 in
15:03 100.2 °F 64.1 °F 29.84 in NNW 3.5 mph 3.5 mph 31 % 0.00 in
15:08 100.1 °F 65.8 °F 29.84 in WNW 3.5 mph 3.5 mph 33 % 0.00 in
15:14 100.4 °F 65.2 °F 29.84 in NE 3.5 mph 3.5 mph 32 % 0.00 in
15:19 100.7 °F 65.5 °F 29.84 in NE 3.5 mph 3.5 mph 32 % 0.00 in
15:24 101.0 °F 63.9 °F 29.83 in West 1.2 mph 1.2 mph 30 % 0.00 in
15:29 101.3 °F 66.0 °F 29.83 in SSE 1.2 mph 1.2 mph 32 % 0.00 in
15:34 101.5 °F 64.3 °F 29.83 in WNW 4.0 mph 4.0 mph 30 % 0.00 in
15:39 100.7 °F 63.6 °F 29.83 in NNW 6.9 mph 6.9 mph 30 % 0.00 in
15:44 100.3 °F 62.3 °F 29.83 in North 5.8 mph 5.8 mph 29 % 0.00 in
15:49 100.0 °F 63.0 °F 29.83 in NW 3.5 mph 3.5 mph 30 % 0.00 in
15:54 99.9 °F 62.0 °F 29.82 in NNW 4.6 mph 4.6 mph 29 % 0.00 in
15:59 99.9 °F 61.0 °F 29.82 in NW 4.0 mph 4.0 mph 28 % 0.00 in
16:04 99.8 °F 59.9 °F 29.82 in North 3.5 mph 3.5 mph 27 % 0.00 in
16:09 99.9 °F 61.0 °F 29.82 in NW 4.6 mph 4.6 mph 28 % 0.00 in
16:14 99.8 °F 61.9 °F 29.82 in NW 3.5 mph 3.5 mph 29 % 0.00 in
16:19 99.9 °F 62.0 °F 29.82 in WNW 3.5 mph 3.5 mph 29 % 0.00 in
16:24 100.3 °F 63.3 °F 29.82 in NW 6.0 mph 6.0 mph 30 % 0.00 in
16:29 100.5 °F 61.5 °F 29.81 in WNW 3.5 mph 3.5 mph 28 % 0.00 in
16:34 100.8 °F 61.7 °F 29.81 in NNW 3.5 mph 3.5 mph 28 % 0.00 in
16:39 101.0 °F 60.9 °F 29.81 in NW 3.5 mph 3.5 mph 27 % 0.00 in
16:40 101.0 °F 61.9 °F 29.81 in WNW 3.5 mph 3.5 mph 28 % 0.00 in
16:45 100.9 °F 60.8 °F 29.81 in WNW 3.5 mph 3.5 mph 27 % 0.00 in
16:50 100.9 °F 63.8 °F 29.80 in NW 3.5 mph 3.5 mph 30 % 0.00 in
16:55 100.8 °F 63.7 °F 29.80 in WNW 2.3 mph 2.3 mph 30 % 0.00 in
17:00 101.0 °F 60.9 °F 29.80 in NW 3.5 mph 3.5 mph 27 % 0.00 in
17:04 101.0 °F 62.9 °F 29.80 in NW 3.5 mph 3.5 mph 29 % 0.00 in
17:05 101.0 °F 62.9 °F 29.80 in WNW 3.0 mph 3.0 mph 29 % 0.00 in
17:10 100.7 °F 61.6 °F 29.81 in NW 4.6 mph 4.6 mph 28 % 0.00 in
17:15 100.4 °F 62.4 °F 29.81 in WNW 3.5 mph 3.5 mph 29 % 0.00 in
17:20 100.4 °F 60.4 °F 29.81 in WSW 2.3 mph 2.3 mph 27 % 0.00 in
17:25 100.6 °F 61.6 °F 29.81 in NW 3.5 mph 3.5 mph 28 % 0.00 in
17:30 100.6 °F 59.5 °F 29.80 in NNW 3.5 mph 3.5 mph 26 % 0.00 in
17:35 100.7 °F 61.6 °F 29.80 in NW 3.5 mph 3.5 mph 28 % 0.00 in
17:40 100.7 °F 63.6 °F 29.80 in NW 3.5 mph 3.5 mph 30 % 0.00 in
17:45 100.9 °F 60.8 °F 29.80 in NW 2.3 mph 2.3 mph 27 % 0.00 in
17:50 100.9 °F 61.8 °F 29.80 in NNE 3.5 mph 3.5 mph 28 % 0.00 in
17:55 100.6 °F 60.5 °F 29.80 in NW 3.5 mph 3.5 mph 27 % 0.00 in
18:00 100.5 °F 61.5 °F 29.80 in WNW 4.6 mph 4.6 mph 28 % 0.00 in
18:05 100.5 °F 61.5 °F 29.79 in NNW 3.5 mph 3.5 mph 28 % 0.00 in
18:10 100.6 °F 59.5 °F 29.80 in WNW 3.5 mph 3.5 mph 26 % 0.00 in
18:11 100.5 °F 59.4 °F 29.80 in NW 3.5 mph 3.5 mph 26 % 0.00 in
18:16 100.6 °F 62.6 °F 29.79 in NW 2.3 mph 2.3 mph 29 % 0.00 in
18:21 100.6 °F 61.6 °F 29.79 in NW 3.5 mph 3.5 mph 28 % 0.00 in
18:26 100.5 °F 60.4 °F 29.79 in NW 2.3 mph 2.3 mph 27 % 0.00 in
18:32 100.4 °F 61.4 °F 29.79 in NNW 3.0 mph 3.0 mph 28 % 0.00 in
18:37 100.2 °F 62.2 °F 29.79 in NW 2.3 mph 2.3 mph 29 % 0.00 in
18:42 100.1 °F 61.1 °F 29.79 in NW 2.3 mph 2.3 mph 28 % 0.00 in
18:47 100.1 °F 62.1 °F 29.79 in NNE 2.3 mph 2.3 mph 29 % 0.00 in
18:52 99.8 °F 61.9 °F 29.79 in NW 3.5 mph 3.5 mph 29 % 0.00 in
18:57 99.4 °F 61.5 °F 29.80 in NW 1.2 mph 1.2 mph 29 % 0.00 in
19:02 98.9 °F 59.1 °F 29.79 in NNW 2.3 mph 2.3 mph 27 % 0.00 in
19:07 98.5 °F 58.8 °F 29.79 in NW 2.3 mph 2.3 mph 27 % 0.00 in
19:12 98.2 °F 59.5 °F 29.79 in NNE 1.2 mph 1.2 mph 28 % 0.00 in
19:17 97.8 °F 59.2 °F 29.79 in NW 1.2 mph 1.2 mph 28 % 0.00 in
19:22 97.5 °F 59.9 °F 29.79 in NNE 2.3 mph 2.3 mph 29 % 0.00 in
19:27 97.2 °F 58.7 °F 29.79 in NW 2.3 mph 2.3 mph 28 % 0.00 in
19:32 96.9 °F 59.4 °F 29.79 in Calm     29 % 0.00 in
19:37 96.6 °F 59.1 °F 29.80 in NW 1.0 mph 1.0 mph 29 % 0.00 in
19:42 96.3 °F 59.8 °F 29.80 in NW 1.2 mph 1.2 mph 30 % 0.00 in
19:47 95.8 °F 59.4 °F 29.80 in NW 1.2 mph 1.2 mph 30 % 0.00 in
19:52 95.2 °F 59.8 °F 29.80 in WNW 2.3 mph 2.3 mph 31 % 0.00 in
19:57 94.7 °F 60.3 °F 29.80 in NW 2.3 mph 2.3 mph 32 % 0.00 in
20:02 94.1 °F 60.6 °F 29.80 in NW 2.3 mph 2.3 mph 33 % 0.00 in
20:05 93.9 °F 60.4 °F 29.80 in NW 2.3 mph 2.3 mph 33 % 0.00 in
20:10 93.4 °F 61.7 °F 29.80 in NW 2.3 mph 2.3 mph 35 % 0.00 in
20:20 92.6 °F 61.0 °F 29.80 in NW 1.2 mph 1.2 mph 35 % 0.00 in
20:25 92.2 °F 60.6 °F 29.80 in NW 1.2 mph 1.2 mph 35 % 0.00 in
20:30 91.8 °F 60.3 °F 29.80 in NW 1.2 mph 1.2 mph 35 % 0.00 in
20:31 91.7 °F 60.2 °F 29.80 in NW 1.0 mph   35 % 0.00 in
20:36 91.2 °F 60.5 °F 29.80 in NW 1.2 mph 1.2 mph 36 % 0.00 in
20:41 90.9 °F 60.3 °F 29.80 in Calm   0.1 mph 36 % 0.00 in
20:46 90.7 °F 60.1 °F 29.80 in NW 1.2 mph 1.2 mph 36 % 0.00 in
20:49 90.7 °F 60.8 °F 29.80 in NW 1.2 mph 1.2 mph 37 % 0.00 in
20:54 90.5 °F 60.7 °F 29.81 in NW 2.3 mph 2.3 mph 37 % 0.00 in
20:59 90.3 °F 60.5 °F 29.81 in Calm     37 % 0.00 in
21:05 89.9 °F 60.9 °F 29.81 in Calm     38 % 0.00 in
21:10 89.3 °F 61.1 °F 29.81 in Calm     39 % 0.00 in
21:15 88.9 °F 62.2 °F 29.81 in Calm     41 % 0.00 in
21:20 88.4 °F 61.7 °F 29.81 in Calm     41 % 0.00 in
21:25 88.0 °F 62.7 °F 29.82 in Calm     43 % 0.00 in
21:30 87.5 °F 64.2 °F 29.82 in NNW 1.2 mph   46 % 0.00 in
21:35 86.5 °F 62.6 °F 29.82 in Calm     45 % 0.00 in
21:40 85.6 °F 63.1 °F 29.82 in Calm     47 % 0.00 in
21:45 85.0 °F 63.1 °F 29.82 in Calm     48 % 0.00 in
21:50 84.6 °F 62.7 °F 29.83 in Calm     48 % 0.00 in
21:55 84.4 °F 63.2 °F 29.83 in Calm     49 % 0.00 in
22:00 83.9 °F 63.3 °F 29.83 in Calm     50 % 0.00 in
22:05 83.4 °F 63.4 °F 29.82 in Calm     51 % 0.00 in
22:10 83.0 °F 63.6 °F 29.82 in Calm     52 % 0.00 in
22:15 82.5 °F 64.2 °F 29.82 in Calm     54 % 0.00 in
22:20 82.4 °F 64.1 °F 29.82 in SE 1.2 mph 1.2 mph 54 % 0.00 in
22:25 82.5 °F 64.2 °F 29.82 in Calm     54 % 0.00 in
22:30 82.3 °F 64.5 °F 29.82 in Calm     55 % 0.00 in
22:35 82.1 °F 64.8 °F 29.82 in Calm     56 % 0.00 in
22:40 82.0 °F 64.2 °F 29.82 in Calm     55 % 0.00 in
22:45 81.9 °F 65.2 °F 29.82 in Calm     57 % 0.00 in
22:50 81.7 °F 65.5 °F 29.82 in Calm     58 % 0.00 in
22:55 81.3 °F 65.1 °F 29.83 in Calm     58 % 0.00 in
23:00 81.2 °F 66.0 °F 29.82 in Calm     60 % 0.00 in
23:05 81.0 °F 65.3 °F 29.83 in Calm     59 % 0.00 in
23:10 80.9 °F 65.2 °F 29.83 in Calm     59 % 0.00 in
23:15 80.8 °F 65.1 °F 29.83 in Calm     59 % 0.00 in
23:20 80.6 °F 64.9 °F 29.83 in Calm     59 % 0.00 in
23:25 80.5 °F 65.3 °F 29.83 in Calm     60 % 0.00 in
23:30 80.3 °F 64.7 °F 29.83 in Calm     59 % 0.00 in
23:35 80.2 °F 65.1 °F 29.83 in Calm     60 % 0.00 in
23:40 80.2 °F 64.6 °F 29.83 in SE 1.2 mph 1.2 mph 59 % 0.00 in
23:45 80.1 °F 65.0 °F 29.83 in Calm     60 % 0.00 in
23:56 79.3 °F 64.7 °F 29.83 in Calm     61 % 0.00 in
Park Place, Exeter, Tulare County, California, USA
Compliments of Weather Underground - 2.75 mb